Weather History for Ft Lauderdale, FL

Change the Weather History Date:

Friday, May 3, 2013

  Actual Average Record
Temperature  
Mean Temperature 77 °F 78 °F  
Max Temperature 85 °F 85 °F 91 °F (1920)
Min Temperature 68 °F 72 °F 55 °F (1925)
Degree Days  
Heating Degree Days 0 0  
Month to date heating degree days 0 0  
Since 1 July heating degree days 85 112  
Cooling Degree Days 12 13  
Month to date cooling degree days 34 39  
Year to date cooling degree days 1004 986  
Growing Degree Days 26 (Base 50)    
Moisture  
Dew Point 69 °F    
Average Humidity 76    
Maximum Humidity 100    
Minimum Humidity 51    
Precipitation  
Precipitation T in 0.06 in 4.54 in (1963)
Month to date precipitation 6.06 0.19  
Year to date precipitation 15.19 13.03  
Snow  
Snow 0.00 in - - ()
Month to date snowfall 0.0  
Since 1 July snowfall 0.0  
Snow Depth 0.00 in    
Sea Level Pressure  
Sea Level Pressure 29.76 in    
Wind  
Wind Speed 7 mph (SW)    
Max Wind Speed 16 mph    
Max Gust Speed 21 mph    
Visibility 10 miles    
Events Rain    
T = Trace of Precipitation, MM = Missing Value Source: NWS Daily Summary

Daily Weather History Graph

Daily Weather History Graph

Search for Another Location

Airport:

Trip Planner

Search our weather history database for the weather conditions in past years. The results will help you decide how hot, cold, wet, or windy it might be!

Date:

Astronomy

May. 03, 2013 Rise Set
Actual Time 6:41 AM EDT 7:53 PM EDT
Civil Twilight 6:17 AM EDT 8:17 PM EDT
Nautical Twilight 5:48 AM EDT 8:46 PM EDT
Astronomical Twilight 5:18 AM EDT 9:16 PM EDT
Moon 2:28 AM EDT (5/3) 2:20 PM EDT (5/3)
Length of Visible Light 14h 00m
Length of Day
13h 11m
Last Quarter, 37% of the Moon is Illuminated
May 3
Last Quarter
May 9
New
May 18
First Quarter
May 25
Full
May 31
Last Quarter

Hourly Weather History & Observations

Time (EDT) Temp. Heat Index Dew Point Humidity Pressure Visibility Wind Dir Wind Speed Gust Speed Precip Events Conditions
12:15 AM 73.4 °F - 69.8 °F 88% 29.80 in 10.0 mi ESE 8.1 mph - 0.02 in Rain Light Rain
12:53 AM 73.9 °F - 71.1 °F 91% 29.78 in 10.0 mi Variable 3.5 mph - 0.02 in   Scattered Clouds
1:03 AM 73.4 °F - 71.6 °F 94% 29.78 in 10.0 mi SSE 4.6 mph - N/A   Mostly Cloudy
1:10 AM 73.4 °F - 69.8 °F 88% 29.78 in 10.0 mi South 5.8 mph - N/A   Scattered Clouds
1:53 AM 72.0 °F - 70.0 °F 93% 29.76 in 10.0 mi WSW 4.6 mph - N/A   Partly Cloudy
2:27 AM 71.6 °F - 69.8 °F 94% 29.75 in 10.0 mi WSW 4.6 mph - N/A   Partly Cloudy
2:46 AM 69.8 °F - 69.8 °F 100% 29.75 in 10.0 mi WSW 5.8 mph - N/A   Mostly Cloudy
2:53 AM 69.8 °F - 69.8 °F 100% 29.75 in 10.0 mi SW 6.9 mph - N/A   Mostly Cloudy
3:53 AM 69.1 °F - 68.0 °F 96% 29.75 in 8.0 mi WSW 6.9 mph - 0.00 in   Light Drizzle
4:31 AM 69.8 °F - 68.0 °F 94% 29.76 in 9.0 mi West 8.1 mph - 0.00 in   Overcast
4:53 AM 69.1 °F - 68.0 °F 96% 29.77 in 8.0 mi West 9.2 mph - 0.00 in   Overcast
5:18 AM 69.8 °F - 68.0 °F 94% 29.76 in 8.0 mi WSW 6.9 mph - N/A   Scattered Clouds
5:53 AM 69.1 °F - 66.9 °F 93% 29.77 in 10.0 mi WSW 5.8 mph - N/A   Partly Cloudy
6:53 AM 69.1 °F - 66.9 °F 93% 29.78 in 10.0 mi Calm Calm - N/A   Partly Cloudy
7:53 AM 70.0 °F - 68.0 °F 93% 29.78 in 10.0 mi SSW 4.6 mph - N/A   Partly Cloudy
8:53 AM 73.0 °F - 69.1 °F 87% 29.78 in 10.0 mi SW 8.1 mph - N/A   Scattered Clouds
9:53 AM 75.0 °F - 68.0 °F 79% 29.79 in 10.0 mi WSW 9.2 mph - N/A   Partly Cloudy
10:53 AM 78.1 °F - 68.0 °F 71% 29.79 in 10.0 mi WSW 11.5 mph - N/A   Partly Cloudy
11:53 AM 81.0 °F 83.0 °F 66.0 °F 60% 29.79 in 10.0 mi WSW 9.2 mph - N/A   Partly Cloudy
12:53 PM 82.0 °F 84.1 °F 66.0 °F 58% 29.77 in 10.0 mi Variable 5.8 mph - N/A   Partly Cloudy
1:53 PM 84.0 °F 85.8 °F 64.9 °F 53% 29.75 in 10.0 mi West 10.4 mph - N/A   Partly Cloudy
2:53 PM 81.0 °F 84.4 °F 70.0 °F 69% 29.73 in 10.0 mi SE 8.1 mph - N/A   Mostly Cloudy
3:53 PM 81.0 °F 84.1 °F 69.1 °F 67% 29.71 in 10.0 mi SSE 13.8 mph - N/A   Mostly Cloudy
4:53 PM 82.0 °F 85.9 °F 70.0 °F 67% 29.69 in 10.0 mi South 12.7 mph - N/A   Mostly Cloudy
5:53 PM 80.1 °F 82.1 °F 66.0 °F 62% 29.70 in 10.0 mi WSW 6.9 mph - N/A   Mostly Cloudy
6:53 PM 78.1 °F - 68.0 °F 71% 29.70 in 10.0 mi West 5.8 mph - 0.00 in   Mostly Cloudy
7:53 PM 78.1 °F - 66.9 °F 68% 29.71 in 10.0 mi SSW 4.6 mph - N/A   Mostly Cloudy
8:53 PM 78.1 °F - 66.0 °F 66% 29.74 in 10.0 mi WSW 5.8 mph - 0.00 in   Light Drizzle
9:53 PM 75.0 °F - 70.0 °F 84% 29.75 in 10.0 mi WNW 5.8 mph - 0.00 in   Mostly Cloudy
10:53 PM 73.9 °F - 71.1 °F 91% 29.75 in 10.0 mi Calm Calm - 0.00 in   Scattered Clouds
11:53 PM 73.9 °F - 71.1 °F 91% 29.74 in 10.0 mi WSW 4.6 mph - N/A   Partly Cloudy